Terminal Aerodrome Forecast
Issued by NWS Dodge City, KS

Current Version | Previous Version | Text Only | Print | Product List | Glossary On
Versions: 1 2 3 4 5 6 7 8 9 10 11 12 13 14 15 16 17 18 19 20 21 22 23 24 25 26 27 28 29 30 31 32 33 34 35 36 37 38 39 40 41 42 43 44 45 46
790
FTUS43 KDDC 291124
TAFDDC
TAF
KDDC 291124Z 2912/3012 18008KT P6SM FEW100
     FM291600 16013G23KT P6SM FEW070
     FM292200 17015G23KT P6SM VCTS SCT060CB
     FM300400 17011KT P6SM SCT150=

USA.gov is the U.S. government's official web portal to all federal, state and local government web resources and services.